EW1033 Weather Reports


Display with metric or nautical units.
time (UTC)temp
F
wind
direction
speed
MPH
gust
MPH
rain 1hr
in
rain 24hr
in
rain mn
in
humidity
%
barometer
mb
20260905073008 80 0.0 0.0 0.00 0.00 0.00 60 1009.3
20260905071501 80 0.0 0.0 0.00 0.00 0.00 58 1009.2
20260905070101 81 0.0 0.0 0.00 0.00 0.00 58 1009.2
20260905064618 81 0.0 0.0 0.00 0.00 0.00 57 1009.3
20260905063100 82 0.0 0.0 0.00 0.00 0.00 55 1009.1
20260905061606 82 0.0 0.0 0.00 0.00 0.00 56 1009.0
20260905060059 83 0.0 0.0 0.00 0.00 0.00 54 1009.0
20260905054707 83 0.0 0.0 0.00 0.00 0.00 55 1009.0
20260905053058 84 0.0 0.0 0.00 0.00 0.00 54 1008.8
20260905051556 84 0.0 0.0 0.00 0.00 0.00 53 1008.7
20260905050056 84 0.0 0.0 0.00 0.00 0.00 52 1008.7
20260905044606 84 0.0 0.0 0.00 0.00 0.00 51 1008.7
20260905043102 85 0.0 0.0 0.00 0.00 0.00 51 1008.6
20260905041554 85 0.0 0.0 0.00 0.00 0.00 48 1008.7
20260905040106 85 0.0 0.0 0.00 0.00 0.00 45 1008.6
20260905034602 85 0.0 0.0 0.00 0.00 0.00 43 1008.6
20260905033053 86 0.0 0.0 0.00 0.00 0.00 40 1008.3
20260905031552 86 0.0 0.0 0.00 0.00 0.00 40 1008.1
20260905030052 86 0.0 0.0 0.00 0.00 0.00 39 1007.8
20260905024558 87 0.0 0.0 0.00 0.00 0.00 38 1007.7
20260905023051 89 0.0 0.0 0.00 0.00 0.00 35 1007.3
20260905021549 90 0.0 0.0 0.00 0.00 0.00 33 1007.2
20260905020054 91 0.0 0.0 0.00 0.00 0.00 32 1007.1
20260905014548 91 0.0 0.0 0.00 0.00 0.00 32 1006.9
20260905013048 92 0.0 0.0 0.00 0.00 0.00 32 1006.8
20260905011547 93 0.0 0.0 0.00 0.00 0.00 31 1006.8
20260905010053 93 0.0 0.0 0.00 0.00 0.00 32 1006.7
20260905004546 94 0.0 0.0 0.00 0.00 0.00 31 1006.6
20260905003046 94 0.0 0.0 0.00 0.00 0.00 33 1006.7
20260905001545 95 0.0 0.0 0.00 0.00 0.00 32 1006.4
20260905000045 95 0.0 0.0 0.00 0.00 0.00 32 1006.4
20260904234543 95 0.0 0.0 0.00 0.00 0.00 30 1006.3
20260904233042 96 0.0 0.0 0.00 0.00 0.00 29 1006.5
20260904231558 96 0.0 0.0 0.00 0.00 0.00 29 1006.5
20260904230039 97 0.0 0.0 0.00 0.00 0.00 29 1006.6
20260904224538 97 0.0 0.0 0.00 0.00 0.00 29 1006.6
20260904223038 96 0.0 0.0 0.00 0.00 0.00 33 1006.7
20260904221538 96 0.0 0.0 0.00 0.00 0.00 32 1006.8
20260904220032 96 0.0 0.0 0.00 0.00 0.00 33 1007.0
20260904214529 96 0.0 0.0 0.00 0.00 0.00 32 1007.2
20260904213028 96 0.0 0.0 0.00 0.00 0.00 30 1007.3
20260904211523 95 0.0 0.0 0.00 0.00 0.00 32 1007.6
20260904210024 95 0.0 0.0 0.00 0.00 0.00 33 1007.7
20260904204520 96 0.0 0.0 0.00 0.00 0.00 31 1007.8
20260904203021 95 0.0 0.0 0.00 0.00 0.00 35 1008.1
20260904201512 94 0.0 0.0 0.00 0.00 0.00 37 1008.4
20260904200010 93 0.0 0.0 0.00 0.00 0.00 36 1008.7
20260904194509 93 0.0 0.0 0.00 0.00 0.00 40 1008.8
20260904193007 93 0.0 0.0 0.00 0.00 0.00 40 1009.0
20260904191505 93 0.0 0.0 0.00 0.00 0.00 38 1009.3
20260904190004 92 0.0 0.0 0.00 0.00 0.00 41 1009.4
20260904184501 90 0.0 0.0 0.00 0.00 0.00 42 1009.6
20260904183059 91 0.0 0.0 0.00 0.00 0.00 42 1009.8
20260904181555 90 0.0 0.0 0.00 0.00 0.00 45 1010.0
20260904180054 90 0.0 0.0 0.00 0.00 0.00 47 1010.3
20260904174550 88 0.0 0.0 0.00 0.00 0.00 51 1010.4
20260904173100 87 0.0 0.0 0.00 0.00 0.00 53 1010.6
20260904171547 87 0.0 0.0 0.00 0.00 0.00 53 1010.7
20260904170041 87 0.0 0.0 0.00 0.00 0.00 54 1010.9
20260904164539 86 0.0 0.0 0.00 0.00 0.00 56 1010.8
20260904163038 86 0.0 0.0 0.00 0.00 0.00 56 1010.8
20260904161535 85 0.0 0.0 0.00 0.00 0.00 58 1010.7
20260904160043 84 0.0 0.0 0.00 0.00 0.00 59 1010.7
20260904154535 84 0.0 0.0 0.00 0.00 0.00 60 1010.7
20260904153031 83 0.0 0.0 0.00 0.00 0.00 61 1010.8
20260904151526 82 0.0 0.0 0.00 0.00 0.00 63 1010.7
20260904150022 81 0.0 0.0 0.00 0.00 0.00 64 1010.7
20260904144518 80 0.0 0.0 0.00 0.00 0.00 66 1010.7
20260904143022 79 0.0 0.0 0.00 0.00 0.00 67 1010.6
20260904141512 78 0.0 0.0 0.00 0.00 0.00 70 1010.5
20260904140009 77 0.0 0.0 0.00 0.00 0.00 72 1010.3
20260904134515 76 0.0 0.0 0.00 0.00 0.00 74 1010.1
20260904133004 75 0.0 0.0 0.00 0.00 0.00 75 1009.8
20260904131500 75 0.0 0.0 0.00 0.00 0.00 76 1009.6
20260904130058 74 0.0 0.0 0.00 0.00 0.00 78 1009.3
20260904124604 74 0.0 0.0 0.00 0.00 0.00 77 1009.1
20260904123100 75 0.0 0.0 0.00 0.00 0.00 77 1008.9
20260904121554 75 0.0 0.0 0.00 0.00 0.00 77 1008.7
20260904120052 75 0.0 0.0 0.00 0.00 0.00 77 1008.7
20260904114550 75 0.0 0.0 0.00 0.00 0.00 76 1008.6
20260904113050 75 0.0 0.0 0.00 0.00 0.00 76 1008.7
20260904111548 75 0.0 0.0 0.00 0.00 0.00 76 1008.7
20260904110046 75 0.0 0.0 0.00 0.00 0.00 75 1008.7
20260904104545 76 0.0 0.0 0.00 0.00 0.00 73 1008.5
20260904103045 77 0.0 0.0 0.00 0.00 0.00 72 1008.5
20260904101545 76 0.0 0.0 0.00 0.00 0.00 73 1008.6
20260904100049 76 0.0 0.0 0.00 0.00 0.00 74 1008.5
20260904094552 75 0.0 0.0 0.00 0.00 0.00 75 1008.5
20260904093041 76 0.0 0.0 0.00 0.00 0.00 75 1008.4
20260904091540 76 0.0 0.0 0.00 0.00 0.00 74 1008.4
20260904090051 77 0.0 0.0 0.00 0.00 0.00 73 1008.4
20260904084537 77 0.0 0.0 0.00 0.00 0.00 72 1008.4
20260904083106 76 0.0 0.0 0.00 0.00 0.00 73 1008.5
20260904081535 76 0.0 0.0 0.00 0.00 0.00 73 1008.5
20260904080034 77 0.0 0.0 0.00 0.00 0.00 73 1008.6
20260904080003 77 0.0 0.0 0.00 0.00 0.00 73 1008.6
20260904074532 78 0.0 0.0 0.00 0.00 0.00 69 1008.6